Flag for Australia Weather past 2 weeks in Tamworth, New South Wales, Australia

Now
46 °F

Overcast.


Feels Like: 44 °F
Forecast: 46 / 68 °F
Wind: 6 mph from Southeast

Location: Tamworth Airport

Current Time: Jul 25, 2014 at 4:44:36 AM

Latest Report: Jul 25, 2014 at 4:00 AM


Visibility: N/A

Pressure: 30.18 "Hg

Humidity: 82%

Dew point: 41 °F

Location of TamworthLocation

Historic Weather in Tamworth — Graph

°F

Tamworth temperature yesterday

Maximum temperature yesterday: 66 °F (at 2:00 PM)
Minimum temperature yesterday: 45 °F (at 7:00 AM)
Average temperature yesterday: 54 °F

Past Weeks' High & Low Weather Summary

 TemperatureHumidityPressure
High66 °F (Jul 24, 2:00 PM)94% (Jul 16, 8:00 AM)30.45 "Hg (Jul 16, 8:00 AM)
Low25 °F (Jul 12, 7:00 AM)32% (Jul 23, 2:00 PM)29.80 "Hg (Jul 10, 4:00 AM)
Average48 °F68%30.15 "Hg
* Reported Jul 10 4:00 AM — Jul 25 4:00 AM, Tamworth, Weather by CustomWeather, © 2014

Note: Actual official high and low records may vary slightly from our data, if they occured in-between our weather recording intervals... More about our weather records

Advertising

Tamworth weather history for previous 24 hours

 ConditionsComfort  
Time TempWeatherWind HumidityBarometerVisibility
4:00 AM
Jul 25
46 °FOvercast.6 mph82%30.18 "HgN/A
3:30 AM46 °FOvercast.2 mph82%30.18 "HgN/A
3:00 AM46 °FOvercast.6 mph82%30.18 "HgN/A
2:00 AM48 °FOvercast.3 mph82%30.18 "HgN/A
1:00 AM45 °FOvercast.5 mph81%30.18 "HgN/A
12:00 AM45 °FPassing clouds.3 mph81%30.18 "HgN/A
11:00 PM
Jul 24
46 °FClear.1 mph82%30.18 "HgN/A
10:30 PM46 °FPassing clouds.5 mph76%30.18 "HgN/A
10:00 PM48 °FClear.7 mph76%30.18 "HgN/A
9:00 PM46 °FClear.7 mph82%30.18 "HgN/A
8:30 PM50 °FClear.5 mph71%30.15 "HgN/A
8:00 PM55 °FPassing clouds.5 mph63%30.15 "HgN/A
7:30 PM55 °FPassing clouds.6 mph67%30.15 "HgN/A
7:00 PM55 °FPassing clouds.7 mph67%30.15 "HgN/A
6:00 PM59 °FOvercast.5 mph55%30.12 "HgN/A
5:30 PM61 °FMostly cloudy.5 mph52%30.12 "HgN/A
5:00 PM61 °FOvercast.6 mph52%30.12 "HgN/A
4:30 PM63 °FPassing clouds.6 mph49%30.12 "HgN/A
4:00 PM64 °FScattered clouds.8 mph46%30.12 "HgN/A
3:30 PM64 °FOvercast.9 mph46%30.09 "HgN/A
3:00 PM64 °FScattered clouds.10 mph46%30.09 "HgN/A
2:30 PM64 °FScattered clouds.13 mph43%30.12 "HgN/A
2:00 PM66 °FScattered clouds.9 mph43%30.12 "HgN/A
1:00 PM63 °FOvercast.10 mph49%30.15 "HgN/A
12:30 PM61 °FMore clouds than sun.8 mph52%30.15 "HgN/A
12:00 PM61 °FCloudy.6 mph52%30.18 "HgN/A
11:30 AM59 °FMore clouds than sun.No wind51%30.18 "HgN/A
10:30 AM57 °FMore clouds than sun.3 mph59%30.21 "HgN/A
10:00 AM55 °FOvercast.5 mph63%30.21 "HgN/A
9:30 AM54 °FMore clouds than sun.6 mph67%30.21 "HgN/A
9:00 AM52 °FMore clouds than sun.5 mph72%30.21 "HgN/A
8:30 AM50 °FOvercast.6 mph76%30.18 "HgN/A
8:00 AM50 °FOvercast.7 mph76%30.15 "HgN/A
7:00 AM45 °FSunny.8 mph81%30.15 "HgN/A
6:30 AM46 °FScattered clouds.8 mph76%30.12 "HgN/A
6:00 AM48 °FScattered clouds.9 mph76%30.12 "HgN/A
5:00 AM48 °FClear.6 mph76%30.12 "HgN/A
4:00 AM48 °FClear.7 mph76%30.12 "HgN/A
Weather by CustomWeather, © 2014

See weather overviewHow to use our weather pages